EW6800 Weather Reports


time (UTC)temp
F
wind
direction
speed
knots
gust
knots
rain 1hr
in
rain 24hr
in
rain mn
in
humidity
%
barometer
mb
20260504231552 49 308 2.6 7.8 0.00 0.00 0.00 88 1015.0
20260504231043 49 312 3.5 7.8 0.00 0.00 0.00 87 1015.2
20260504230544 50 306 4.3 7.8 0.00 0.00 0.00 87 1015.3
20260504230054 50 308 4.3 7.8 0.00 0.00 0.00 87 1015.2
20260504225545 50 323 4.3 7.8 0.00 0.00 0.00 86 1015.2
20260504225043 51 319 5.2 7.8 0.00 0.00 0.00 85 1015.2
20260504224558 52 286 4.3 7.8 0.00 0.00 0.00 85 1015.1
20260504224044 52 302 3.5 7.8 0.00 0.00 0.00 83 1015.1
20260504223544 53 292 4.3 7.8 0.00 0.00 0.00 82 1015.2
20260504223055 53 296 2.6 6.1 0.00 0.00 0.00 83 1015.2
20260504222544 53 304 2.6 6.1 0.00 0.00 0.00 83 1015.2
20260504222047 53 287 2.6 6.1 0.00 0.00 0.00 82 1015.2
20260504221552 52 313 1.7 6.1 0.00 0.00 0.00 84 1015.2
20260504221044 52 300 2.6 6.1 0.00 0.00 0.00 83 1015.2
20260504220545 52 290 2.6 6.1 0.00 0.00 0.00 82 1015.3
20260504220054 52 286 1.7 4.3 0.00 0.00 0.00 84 1015.4
20260504215547 51 321 1.7 4.3 0.00 0.00 0.00 86 1015.5
20260504215043 51 316 1.7 4.3 0.00 0.00 0.00 88 1015.5
20260504214556 51 303 2.6 6.1 0.00 0.00 0.00 88 1015.5
20260504214049 50 318 1.7 6.1 0.00 0.00 0.00 88 1015.6
20260504213545 50 304 1.7 4.3 0.00 0.00 0.00 88 1015.6
20260504213052 50 304 1.7 4.3 0.00 0.00 0.00 88 1015.6
20260504212544 50 310 1.7 5.2 0.00 0.00 0.00 88 1015.5
20260504212048 50 303 1.7 5.2 0.00 0.00 0.00 88 1015.6
20260504211550 50 317 2.6 6.1 0.00 0.00 0.00 87 1015.7
20260504211046 50 297 2.6 7.0 0.00 0.00 0.00 87 1015.7
20260504210549 50 311 2.6 7.8 0.00 0.00 0.00 87 1015.7
20260504210105 50 301 4.3 7.8 0.00 0.00 0.00 87 1015.7
20260504205547 50 318 2.6 7.0 0.00 0.00 0.00 87 1015.7
20260504205046 50 298 2.6 7.0 0.00 0.00 0.00 86 1015.6
20260504204557 50 318 3.5 7.0 0.00 0.00 0.00 85 1015.6
20260504204040 50 323 0.9 7.0 0.00 0.00 0.00 85 1015.6
20260504203544 50 306 2.6 7.0 0.00 0.00 0.00 85 1015.6
20260504203105 50 298 3.5 7.0 0.00 0.00 0.00 85 1015.5
20260504202545 51 304 2.6 7.0 0.00 0.00 0.00 85 1015.6
20260504202045 51 305 3.5 6.1 0.00 0.00 0.00 85 1015.6
20260504201549 51 316 1.7 6.1 0.00 0.00 0.00 84 1015.6
20260504201044 51 313 2.6 5.2 0.00 0.00 0.00 84 1015.7
20260504200544 51 312 1.7 6.1 0.00 0.00 0.00 83 1015.6
20260504200053 51 310 3.5 6.1 0.00 0.00 0.00 82 1015.6
20260504195544 52 325 3.5 6.1 0.00 0.00 0.00 82 1015.6
20260504195044 52 316 0.9 6.1 0.00 0.00 0.00 81 1015.7
20260504194600 52 317 1.7 3.5 0.00 0.00 0.00 80 1015.6
20260504194042 52 323 0.0 1.7 0.00 0.00 0.00 81 1015.7
20260504193544 52 323 0.0 2.6 0.00 0.00 0.00 81 1015.6
20260504193053 52 0 0.0 2.6 0.00 0.00 0.00 81 1015.5
20260504192545 52 0 0.0 2.6 0.00 0.00 0.00 80 1015.6
20260504192043 52 323 0.9 2.6 0.00 0.00 0.00 82 1015.7
20260504191551 52 0 0.0 4.3 0.00 0.00 0.00 82 1015.6
20260504191044 52 0 1.7 4.3 0.00 0.00 0.00 82 1015.6
20260504190544 52 0 0.0 4.3 0.00 0.00 0.00 83 1015.6
20260504190121 51 306 0.0 3.5 0.00 0.00 0.00 85 1015.5
20260504185544 51 306 0.9 3.5 0.00 0.00 0.00 84 1015.6
20260504185045 51 321 1.7 2.6 0.00 0.00 0.00 85 1015.5
20260504184553 51 0 0.0 2.6 0.00 0.00 0.00 84 1015.6
20260504184047 51 0 0.9 2.6 0.00 0.00 0.00 84 1015.6
20260504183545 51 322 1.7 4.3 0.00 0.00 0.00 83 1015.6
20260504183051 51 0 1.7 4.3 0.00 0.00 0.00 82 1015.5
20260504182544 52 0 0.9 4.3 0.00 0.00 0.00 82 1015.6
20260504182045 52 329 1.7 4.3 0.00 0.00 0.00 82 1015.6
20260504181555 52 319 0.9 3.5 0.00 0.00 0.00 81 1015.4
20260504181044 52 0 0.9 3.5 0.00 0.00 0.00 80 1015.4
20260504180546 52 0 1.7 3.5 0.00 0.00 0.00 80 1015.4
20260504180052 52 302 0.9 3.5 0.00 0.00 0.00 80 1015.4
20260504175543 53 302 1.7 3.5 0.00 0.00 0.00 80 1015.1
20260504175044 53 268 0.0 3.5 0.00 0.00 0.00 80 1015.2
20260504174559 53 0 0.0 0.0 0.00 0.00 0.00 79 1015.1
20260504174044 53 0 0.0 2.6 0.00 0.00 0.00 78 1015.1
20260504173543 53 0 0.0 2.6 0.00 0.00 0.00 79 1015.0
20260504173052 53 0 0.0 2.6 0.00 0.00 0.00 76 1015.0
20260504172544 53 0 0.0 0.0 0.00 0.00 0.00 77 1015.0
20260504172045 53 0 0.0 0.0 0.00 0.00 0.00 78 1014.9
20260504171551 52 0 0.0 0.0 0.00 0.00 0.00 78 1015.0
20260504171045 52 0 0.0 1.7 0.00 0.00 0.00 78 1014.8
20260504170544 52 0 0.0 1.7 0.00 0.00 0.00 77 1014.7
20260504151044 48 0 0.0 3.5 0.00 0.01 0.00 86 1014.8
20260504150544 48 306 0.9 3.5 0.00 0.01 0.00 86 1014.8
20260504141044 46 0 0.0 0.0 0.00 0.01 0.00 92 1014.5
20260504140544 46 0 0.0 0.0 0.00 0.01 0.00 92 1014.5
20260504130544 46 0 0.0 0.0 0.00 0.01 0.00 93 1014.1
20260504110544 46 0 0.0 0.0 0.00 0.01 0.00 93 1014.2
20260504100546 46 0 0.0 0.0 0.00 0.01 0.00 94 1014.1
20260504100218 46 0 0.0 0.0 0.00 0.01 0.00 94 1014.1
20260504081549 45 178 0.9 1.7 0.00 0.01 0.00 93 1014.7
20260504081044 45 0 0.0 1.7 0.00 0.01 0.00 93 1014.7
20260504080545 45 0 0.0 1.7 0.00 0.01 0.00 93 1014.7
20260504050544 46 0 0.0 1.7 0.00 0.01 0.01 91 1014.8
20260504050114 46 0 0.0 1.7 0.00 0.01 0.01 91 1014.6
20260504045547 46 0 0.0 1.7 0.00 0.01 0.01 90 1014.6
20260504045045 46 119 0.0 1.7 0.00 0.01 0.01 90 1014.4
20260504044552 46 119 0.9 1.7 0.00 0.01 0.01 90 1014.5
20260504044043 46 0 0.0 0.9 0.00 0.01 0.01 90 1014.4
20260504043544 46 0 0.0 0.0 0.00 0.01 0.01 89 1014.5
20260504043106 46 0 0.0 0.0 0.00 0.01 0.01 89 1014.3
20260504042543 46 0 0.0 0.0 0.00 0.01 0.01 89 1014.3
20260504042044 46 0 0.0 0.0 0.00 0.01 0.01 89 1014.4
20260504041550 46 0 0.0 0.0 0.00 0.01 0.01 88 1014.2
20260504041044 46 0 0.0 1.7 0.00 0.01 0.01 88 1014.1
20260504040545 46 0 0.0 1.7 0.00 0.01 0.01 88 1014.1
20260504040100 46 0 0.0 2.6 0.00 0.01 0.01 88 1014.0
20260504035544 46 0 0.0 2.6 0.00 0.01 0.01 88 1013.9
20260504035044 47 222 0.0 0.9 0.00 0.01 0.01 88 1013.9
20260504034601 47 0 0.0 2.6 0.00 0.01 0.01 87 1013.8
20260504034043 47 0 0.0 2.6 0.00 0.01 0.01 87 1013.7
20260504033544 47 254 0.0 1.7 0.00 0.01 0.01 87 1013.5
20260504033056 47 254 0.0 0.9 0.00 0.01 0.01 87 1013.6
20260504032544 47 0 0.0 0.9 0.00 0.01 0.01 87 1013.5
20260504032047 47 254 0.0 0.9 0.00 0.01 0.01 87 1013.3
20260504031604 48 0 0.0 0.9 0.00 0.01 0.01 86 1013.3
20260504031043 48 0 0.0 0.9 0.00 0.01 0.01 86 1013.2
20260504030543 48 0 0.0 0.9 0.00 0.01 0.01 85 1013.1
20260504030054 48 0 0.0 0.9 0.00 0.01 0.01 85 1013.2
20260504025543 48 0 0.0 1.7 0.00 0.01 0.01 84 1013.2
20260504025044 48 0 0.0 4.3 0.00 0.01 0.01 84 1013.1
20260504024558 48 194 0.0 4.3 0.00 0.01 0.01 83 1013.1
20260504024044 49 0 0.9 4.3 0.00 0.01 0.01 83 1012.9
20260504023544 49 0 0.0 2.6 0.00 0.01 0.01 82 1013.1
20260504023048 49 0 0.0 2.6 0.00 0.01 0.01 81 1013.1
20260504022544 49 0 0.9 2.6 0.00 0.01 0.01 80 1013.0
20260504022043 49 218 0.0 3.5 0.00 0.01 0.01 80 1013.0
20260504021554 50 0 0.9 3.5 0.00 0.01 0.01 79 1013.1
20260504021043 50 218 1.7 3.5 0.00 0.01 0.01 78 1013.0
20260504020541 50 205 0.0 2.6 0.00 0.01 0.01 79 1013.1
20260504020051 50 175 0.0 3.5 0.00 0.01 0.01 79 1013.1
20260504015542 51 0 0.0 4.3 0.00 0.01 0.01 80 1013.1
20260504015041 51 0 1.7 4.3 0.00 0.01 0.01 80 1013.1
20260504014601 51 250 0.0 3.5 0.00 0.01 0.01 80 1013.2
20260504014044 51 0 0.0 3.5 0.00 0.01 0.01 80 1013.1
20260504013540 52 0 0.0 3.5 0.00 0.01 0.01 80 1013.2
20260504013100 52 0 0.0 2.6 0.00 0.01 0.01 80 1013.2
20260504012545 52 240 0.9 2.6 0.00 0.01 0.01 79 1013.3
20260504012041 52 0 0.0 2.6 0.00 0.01 0.01 78 1013.2
20260504011551 52 348 0.9 2.6 0.00 0.01 0.01 78 1013.1
20260504011039 53 348 0.9 2.6 0.00 0.01 0.01 77 1013.2
20260504010541 53 0 0.0 2.6 0.00 0.01 0.01 77 1013.2
20260504010113 53 0 0.9 5.2 0.00 0.01 0.01 76 1013.1
20260504005542 53 299 1.7 5.2 0.00 0.01 0.01 76 1013.1
20260504005042 53 263 0.9 3.5 0.00 0.01 0.01 73 1013.1
20260504004553 53 248 0.9 3.5 0.00 0.01 0.01 73 1013.0
20260504004044 53 300 1.7 4.3 0.00 0.01 0.01 72 1012.9
20260504003546 54 194 1.7 4.3 0.00 0.01 0.01 70 1012.9
20260504003050 54 221 1.7 5.2 0.00 0.01 0.01 69 1012.9
20260504002540 54 212 1.7 5.2 0.00 0.01 0.01 68 1012.9
20260504002043 54 188 0.9 5.2 0.00 0.01 0.01 68 1013.0
20260504001600 55 228 1.7 5.2 0.00 0.01 0.01 67 1012.9
20260504001043 55 247 1.7 6.1 0.00 0.01 0.01 68 1012.9
20260504000539 55 240 1.7 6.1 0.00 0.01 0.01 67 1012.8
20260504000058 55 145 0.9 7.0 0.00 0.01 0.01 68 1012.8
20260503235547 55 238 1.7 7.0 0.00 0.01 0.01 68 1012.8
20260503235040 55 200 1.7 6.1 0.00 0.01 0.01 68 1012.8
20260503234551 55 0 0.9 4.3 0.00 0.01 0.01 74 1012.7
20260503234041 55 255 0.9 5.2 0.00 0.01 0.01 73 1012.9
20260503233541 55 202 1.7 5.2 0.00 0.01 0.01 69 1012.9
20260503233059 54 202 1.7 4.3 0.00 0.01 0.01 69 1012.9
20260503232542 54 219 0.9 4.3 0.00 0.01 0.01 70 1012.9
20260503232040 54 241 0.9 4.3 0.00 0.01 0.01 70 1012.9